Wind_Speed
23 24 24 24 23 23 22 22 21 22 22 19 17 18 23 25 28 30 32 35 38 41 43 45 47 49 51 53 53 53 54 55 56 57 58 58 58 57 57 56 55 54 54 54
21 21 21 21 21 21 21 20 19 19 20 18 17 22 27 29 32 36 40 43 45 46 48 50 51 53 53 54 54 54 54 55 56 57 58 59 59 58 57 56 55 55 55 54
18 18 18 19 18 18 19 18 18 18 20 22 25 30 35 38 41 44 47 49 50 50 51 52 52 53 53 53 54 54 54 55 56 57 58 59 59 59 58 57 56 55 55 55
15 15 15 16 17 18 18 20 21 23 27 29 33 40 44 47 49 52 53 53 54 55 56 56 56 56 57 58 58 59 59 59 59 60 61 61 61 61 60 58 57 57 56 55
16 16 17 18 20 22 24 26 29 31 34 37 41 45 49 53 56 56 57 57 58 58 58 59 61 63 65 66 67 67 68 67 67 65 64 64 64 63 62 60 59 58 57 56
18 19 20 22 24 27 29 31 34 36 39 42 45 49 54 57 58 58 58 59 60 62 65 67 70 72 74 75 75 75 75 74 72 69 67 66 65 64 63 61 59 57 56 55
20 21 24 25 28 30 33 36 39 42 45 48 50 54 57 58 58 59 61 64 67 71 74 77 79 80 80 80 80 79 78 75 72 69 67 65 64 64 63 60 57 54 52 51
24 26 27 29 32 35 37 40 43 47 50 53 55 57 59 59 62 64 68 72 76 79 82 83 83 83 83 82 80 78 74 71 68 65 63 61 61 60 58 55 52 49 47 47
29 31 33 35 38 40 43 46 48 51 54 54 54 56 60 63 66 71 76 79 81 83 84 85 84 82 80 77 73 70 66 63 60 59 57 55 54 55 53 51 50 48 48 48
33 35 37 40 42 44 46 48 50 52 54 55 55 61 66 68 73 76 80 82 83 84 84 82 80 76 71 67 63 60 57 55 52 52 52 51 52 54 53 51 49 47 46 47
37 40 41 43 46 48 49 50 51 52 55 59 62 63 70 73 77 81 82 82 81 79 75 72 69 65 61 57 54 52 51 50 49 49 51 51 53 52 50 49 47 45 44 45
41 43 45 47 48 49 50 51 52 54 58 62 66 71 74 76 79 79 77 75 71 66 63 62 62 61 57 53 50 48 48 47 47 48 51 53 53 52 51 50 48 45 44 44
44 46 48 49 49 50 51 52 54 59 63 66 70 74 75 77 76 71 68 64 59 57 58 61 63 62 59 54 50 48 46 46 45 45 48 52 53 53 53 50 45 44 44 45
46 47 47 48 50 52 52 54 58 63 68 70 72 75 74 72 68 63 58 54 53 56 61 65 66 63 58 53 48 45 42 40 39 39 41 46 51 52 49 43 42 44 44 43
46 47 48 50 51 53 56 58 64 69 71 72 73 72 67 64 60 56 52 51 54 59 65 67 65 59 52 46 43 40 36 33 31 31 33 37 42 45 42 41 42 42 39 36
48 49 51 52 54 57 59 65 71 73 73 69 68 63 59 55 52 49 47 50 55 62 65 65 59 50 41 37 34 32 31 28 26 24 25 28 33 38 40 41 39 35 32 32
49 51 54 56 59 62 68 71 74 76 70 64 63 59 56 51 44 43 45 49 55 61 63 60 49 37 30 26 24 24 25 25 23 21 19 20 24 28 31 32 31 28 29 32
51 54 57 60 64 69 71 75 77 75 64 58 54 52 50 43 38 40 43 48 52 57 57 51 40 29 21 17 17 19 22 23 23 21 18 17 18 21 23 23 24 25 27 29
55 58 61 64 68 73 76 78 74 71 60 53 50 47 41 35 34 35 39 44 48 51 50 44 34 25 18 14 15 18 20 22 23 22 20 18 19 20 21 22 24 25 27 27
57 60 64 68 73 76 77 75 68 65 54 50 46 42 38 33 32 33 37 40 43 44 43 38 31 24 18 14 15 17 18 20 21 21 21 21 22 22 23 24 25 26 27 27
60 63 67 72 75 75 73 68 63 54 51 46 41 39 37 35 33 34 35 37 38 39 38 35 30 25 20 18 17 17 18 19 20 22 23 24 25 25 25 26 27 28 29 29
63 67 70 74 74 69 67 59 53 48 43 42 40 38 35 33 32 32 33 35 36 36 36 34 30 27 24 23 22 21 21 21 22 23 25 27 28 29 29 30 30 31 32 32
65 69 73 73 69 65 56 50 47 43 41 39 38 36 33 31 31 31 33 34 35 36 36 35 33 30 28 26 26 26 26 27 27 28 29 30 32 33 33 34 34 35 35 36
68 71 72 69 64 56 49 46 42 40 40 38 36 33 31 31 31 31 33 34 35 37 38 37 36 34 32 30 29 28 28 28 29 30 31 32 33 35 37 38 38 39 39 40
71 72 69 63 58 49 44 43 41 40 38 36 34 32 31 31 31 32 33 34 36 37 39 40 39 36 34 33 32 31 31 30 29 29 30 31 32 34 36 39 42 43 44 45
71 69 65 58 52 46 42 41 41 39 37 35 33 31 31 31 32 33 34 35 36 38 40 41 39 37 35 33 32 31 31 31 31 31 31 31 32 34 36 39 42 45 47 49
Wind_Direction
296 297 298 298 298 297 296 294 291 289 289 287 285 280 279 282 285 288 289 290 291 292 292 293 292 292 291 291 289 288 286 285 284 283 283 282 281 280 279 279 277 277 276 276
298 298 298 298 298 297 297 296 294 292 290 287 283 284 285 286 288 290 292 295 296 296 296 295 294 294 294 292 291 289 287 285 283 282 281 281 280 279 279 278 277 276 276 276
310 308 307 304 303 301 300 297 294 290 288 289 290 291 291 291 292 294 296 298 299 299 299 299 298 297 297 295 294 292 289 287 285 283 282 281 280 279 278 277 276 275 274 274
328 326 322 317 311 307 301 299 297 294 293 292 295 298 299 298 299 301 303 303 303 303 302 302 302 302 301 300 298 296 293 291 288 286 283 282 280 278 277 275 274 272 271 270
330 327 322 315 309 305 302 302 300 299 298 299 300 301 302 303 305 307 307 306 304 303 302 302 302 302 301 300 299 297 295 293 290 288 284 281 279 277 275 273 271 269 268 268
325 321 316 313 310 308 308 306 304 303 302 302 303 306 305 307 309 308 306 304 303 302 302 302 302 301 300 299 297 295 293 291 289 286 282 279 276 274 272 270 269 268 267 267
324 319 316 314 312 311 310 309 308 306 306 306 307 308 308 308 308 308 307 305 303 303 302 302 302 301 299 297 295 292 290 288 285 282 278 274 271 269 268 267 268 267 267 266
320 317 316 314 313 312 311 311 311 310 309 309 310 311 310 309 309 309 307 305 303 303 303 302 301 299 296 295 293 291 288 285 281 276 272 269 266 265 265 265 266 266 266 265
319 319 316 314 314 315 315 315 314 313 311 311 311 311 307 308 309 308 306 304 303 302 301 299 298 297 296 295 293 290 286 281 276 271 267 264 261 260 260 261 262 264 267 267
315 315 315 314 314 314 315 316 315 315 314 312 311 309 307 309 308 306 304 303 302 301 301 300 300 299 298 296 293 289 284 278 271 265 261 258 257 257 258 261 264 268 269 270
312 313 315 315 315 316 317 316 315 314 312 311 310 309 309 309 307 305 305 305 305 305 305 303 302 302 300 298 295 290 285 279 270 262 257 253 254 256 258 262 265 268 270 272
313 314 315 315 315 315 316 316 315 313 312 311 310 310 309 308 307 307 307 307 307 307 306 306 305 304 302 299 296 292 287 283 275 265 256 252 251 254 257 259 263 266 269 270
315 316 316 316 316 316 316 316 314 312 311 310 309 309 309 309 309 309 308 308 309 310 310 310 308 305 301 297 293 290 288 285 280 271 260 252 250 250 253 256 259 263 268 271
316 316 316 315 315 315 315 315 313 312 311 310 310 310 311 311 312 311 310 311 313 315 315 313 309 305 300 294 289 285 285 286 284 277 265 255 250 250 252 254 259 263 267 268
316 316 316 315 314 314 314 314 312 312 312 312 313 313 315 314 313 313 314 316 317 317 317 315 311 306 299 292 287 283 282 284 287 280 268 257 250 251 252 255 258 262 262 258
318 317 317 315 313 312 313 312 312 314 316 316 315 315 314 314 313 315 317 318 320 321 322 321 317 310 300 291 285 282 279 281 286 281 267 254 248 249 253 254 256 255 250 249
318 317 316 314 314 314 314 315 315 316 318 317 316 317 315 315 315 317 320 322 325 327 329 329 326 319 309 296 287 284 280 279 284 282 268 252 244 245 248 250 249 246 247 252
318 316 315 315 315 316 317 315 316 317 319 317 316 314 313 315 317 321 322 326 330 333 335 337 337 332 323 309 294 289 286 282 285 283 272 257 247 244 244 246 248 249 251 252
318 316 315 315 316 315 315 317 319 318 321 319 316 314 312 312 316 321 324 328 332 335 339 342 343 342 335 318 301 295 292 290 288 285 275 262 252 247 248 251 254 253 252 251
317 315 315 317 317 317 318 319 320 319 321 320 317 315 315 316 318 323 326 328 332 336 340 344 345 342 337 322 308 302 297 295 292 286 276 266 260 256 256 257 257 255 253 254
316 316 317 317 318 317 320 320 320 321 324 321 318 317 317 318 322 324 327 329 332 335 339 341 341 338 332 322 312 304 299 297 293 287 280 271 264 262 261 261 260 258 256 255
316 317 318 318 318 320 321 320 322 323 321 318 317 315 315 318 322 325 328 330 333 335 336 337 336 332 326 318 309 302 296 294 291 286 281 275 269 264 262 262 262 261 259 257
316 318 318 319 319 320 321 322 324 322 321 318 315 313 313 319 324 326 328 330 333 335 335 334 331 328 323 317 310 302 297 293 289 285 281 277 273 267 263 262 262 261 260 259
317 318 318 319 320 322 322 323 324 322 321 318 315 314 316 321 324 325 326 327 329 332 333 331 329 324 320 316 312 308 303 298 292 288 284 279 274 269 265 263 262 262 262 262
318 319 319 319 320 321 322 323 325 325 323 321 320 319 319 321 324 324 325 326 328 330 330 330 328 324 320 315 310 307 304 302 299 295 290 284 278 273 268 265 263 263 264 265
319 320 320 321 322 324 325 326 328 327 325 324 323 321 321 322 324 325 326 327 328 329 329 328 327 325 322 319 315 311 306 302 298 294 291 288 283 277 273 269 268 266 267 268
Height
5812 5811 5808 5807 5805 5803 5801 5799 5798 5796 5794 5794 5792 5789 5785 5783 5781 5779 5778 5775 5772 5769 5765 5761 5757 5753 5748 5744 5740 5735 5731 5727 5723 5719 5716 5713 5711 5709 5707 5705 5704 5702 5701 5700
5807 5805 5803 5801 5799 5797 5796 5794 5793 5791 5788 5787 5787 5783 5779 5777 5775 5772 5769 5766 5762 5757 5753 5748 5743 5738 5733 5729 5724 5720 5716 5711 5707 5703 5700 5697 5695 5692 5691 5689 5687 5685 5684 5683
5802 5801 5798 5796 5794 5792 5790 5789 5788 5786 5784 5782 5780 5777 5771 5769 5766 5763 5758 5753 5749 5744 5739 5733 5728 5722 5717 5712 5708 5703 5699 5695 5691 5687 5684 5681 5678 5676 5674 5672 5671 5669 5667 5666
5799 5797 5795 5793 5790 5788 5786 5785 5783 5781 5778 5776 5773 5767 5760 5757 5754 5749 5743 5738 5732 5727 5721 5716 5710 5705 5700 5695 5691 5686 5682 5678 5674 5670 5666 5663 5660 5658 5657 5655 5653 5652 5651 5650
5796 5794 5792 5789 5787 5784 5782 5780 5778 5774 5770 5767 5764 5758 5752 5745 5740 5734 5729 5723 5717 5711 5705 5699 5693 5688 5682 5677 5672 5667 5663 5659 5654 5651 5647 5644 5641 5639 5638 5637 5635 5635 5634 5634
5793 5791 5788 5785 5783 5780 5777 5775 5771 5767 5763 5760 5754 5748 5742 5735 5727 5722 5716 5709 5703 5696 5689 5682 5675 5669 5663 5657 5651 5647 5643 5639 5634 5631 5627 5624 5622 5620 5619 5618 5618 5618 5618 5618
5790 5788 5784 5781 5778 5775 5772 5768 5764 5758 5754 5750 5744 5736 5730 5723 5715 5708 5702 5695 5687 5679 5671 5663 5656 5648 5641 5635 5628 5623 5619 5616 5612 5609 5607 5604 5602 5601 5600 5600 5601 5601 5602 5602
5787 5784 5780 5776 5773 5769 5765 5761 5756 5750 5745 5740 5733 5725 5717 5709 5701 5693 5685 5677 5669 5661 5652 5643 5634 5626 5618 5611 5605 5599 5595 5592 5589 5586 5585 5584 5583 5583 5584 5585 5585 5585 5586 5587
5782 5779 5775 5771 5766 5762 5757 5752 5746 5739 5733 5728 5723 5714 5703 5696 5686 5678 5669 5660 5651 5643 5634 5623 5614 5604 5596 5589 5582 5576 5572 5569 5567 5566 5565 5566 5567 5568 5569 5569 5570 5570 5571 5572
5776 5774 5769 5764 5759 5754 5749 5742 5735 5727 5720 5715 5713 5703 5690 5681 5672 5662 5652 5642 5633 5622 5611 5600 5590 5582 5575 5567 5561 5556 5551 5548 5548 5548 5549 5551 5553 5554 5554 5555 5556 5557 5558 5558
5769 5766 5761 5756 5750 5744 5738 5732 5724 5717 5709 5701 5697 5695 5678 5668 5654 5643 5633 5620 5609 5599 5589 5579 5570 5563 5556 5549 5543 5538 5534 5531 5530 5531 5532 5535 5537 5539 5540 5541 5542 5544 5544 5544
5762 5758 5753 5748 5741 5734 5728 5721 5714 5707 5699 5688 5679 5680 5661 5652 5638 5625 5614 5603 5593 5583 5573 5563 5554 5546 5540 5534 5528 5523 5518 5515 5513 5513 5515 5517 5520 5522 5525 5527 5529 5530 5531 5531
5755 5750 5744 5738 5733 5726 5718 5710 5702 5694 5685 5676 5665 5660 5645 5634 5623 5611 5598 5588 5579 5570 5560 5550 5540 5530 5523 5517 5512 5508 5503 5500 5497 5496 5497 5500 5503 5506 5510 5513 5515 5517 5517 5517
5747 5741 5736 5730 5721 5714 5707 5700 5690 5679 5670 5660 5650 5638 5629 5616 5605 5595 5584 5574 5565 5556 5545 5533 5522 5512 5504 5499 5495 5492 5489 5486 5483 5481 5481 5483 5487 5491 5495 5499 5501 5503 5504 5504
5738 5733 5726 5719 5711 5704 5697 5689 5679 5666 5652 5642 5632 5620 5609 5598 5588 5578 5569 5561 5553 5543 5531 5517 5503 5492 5485 5481 5479 5478 5477 5475 5473 5470 5469 5470 5473 5478 5482 5486 5488 5490 5491 5493
5730 5723 5716 5710 5702 5694 5687 5677 5664 5652 5636 5623 5613 5605 5596 5587 5576 5567 5559 5550 5541 5529 5515 5500 5486 5475 5469 5467 5466 5466 5466 5466 5465 5462 5461 5461 5463 5467 5471 5474 5477 5479 5481 5482
5720 5713 5706 5699 5690 5681 5673 5661 5650 5639 5624 5609 5599 5590 5581 5576 5567 5558 5549 5541 5530 5517 5502 5486 5472 5463 5459 5457 5458 5458 5458 5459 5458 5456 5455 5455 5456 5458 5462 5465 5467 5469 5471 5473
5710 5702 5694 5687 5678 5668 5657 5645 5636 5626 5613 5598 5588 5578 5570 5564 5558 5550 5541 5531 5521 5509 5494 5480 5467 5459 5455 5454 5454 5454 5453 5453 5452 5451 5450 5449 5450 5452 5454 5457 5458 5460 5462 5463
5700 5691 5682 5673 5664 5654 5642 5630 5619 5610 5602 5589 5578 5570 5562 5556 5551 5544 5534 5525 5514 5503 5490 5478 5468 5460 5455 5453 5452 5450 5449 5448 5447 5446 5445 5445 5445 5446 5447 5449 5450 5451 5453 5454
5689 5679 5670 5659 5649 5639 5627 5615 5602 5593 5589 5578 5567 5559 5552 5546 5541 5537 5528 5520 5510 5500 5489 5478 5469 5462 5456 5452 5450 5448 5446 5444 5443 5442 5441 5440 5440 5440 5441 5441 5442 5443 5444 5445
5678 5668 5659 5647 5634 5623 5613 5600 5590 5584 5576 5567 5559 5551 5544 5538 5533 5528 5521 5514 5506 5497 5487 5478 5469 5462 5457 5452 5448 5445 5442 5440 5438 5437 5436 5435 5435 5434 5434 5434 5434 5435 5436 5437
5666 5657 5647 5635 5622 5612 5598 5587 5581 5574 5565 5557 5550 5544 5538 5532 5527 5521 5515 5508 5501 5493 5485 5476 5469 5462 5456 5450 5446 5442 5439 5436 5433 5432 5430 5429 5428 5427 5427 5426 5426 5427 5427 5427
5656 5646 5634 5623 5613 5598 5586 5577 5571 5563 5557 5550 5543 5537 5531 5525 5520 5514 5508 5502 5495 5488 5481 5473 5466 5459 5453 5447 5442 5438 5434 5430 5427 5425 5423 5421 5420 5418 5418 5417 5417 5417 5417 5417
5646 5635 5622 5611 5601 5591 5580 5571 5565 5557 5550 5543 5536 5530 5524 5519 5513 5508 5502 5496 5490 5483 5476 5469 5462 5455 5449 5442 5437 5432 5427 5423 5420 5417 5414 5412 5410 5409 5408 5407 5406 5406 5405 5405
5634 5623 5612 5601 5591 5584 5574 5565 5559 5551 5543 5537 5530 5524 5519 5513 5508 5502 5496 5490 5484 5477 5470 5463 5455 5449 5442 5436 5430 5425 5421 5416 5412 5408 5405 5402 5400 5398 5396 5395 5394 5393 5392 5391
5622 5611 5601 5591 5581 5574 5567 5559 5551 5544 5537 5530 5524 5519 5513 5508 5502 5496 5490 5484 5477 5471 5464 5456 5449 5441 5435 5428 5422 5417 5412 5408 5403 5400 5396 5393 5390 5387 5385 5383 5382 5380 5378 5376